Regional Weather Roundup
Issued by NWS

Home | Current Version | Previous Version | Graphics & Text | Print | Product List | Glossary On
Versions: 1 2 3 4 5 6 7 8 9 10 11 12 13 14 15 16 17 18 19 20 21 22 23 24 25 26 27 28 29 30 31 32 33 34 35 36 37 38 39 40 41 42 43 44 45 46 47 48 49 50
000
ASUS43 KLSX 250359
RWRMO

WEATHER SUMMARY FOR MISSOURI
NATIONAL WEATHER SERVICE SPRINGFIELD MO
1100 PM CDT THU JUL 24 2014

NOTE: "FAIR" INDICATES FEW OR NO CLOUDS BELOW 12,000 FEET WITH NO
       SIGNIFICANT WEATHER AND/OR OBSTRUCTIONS TO VISIBILITY.
       CURRENT SKY AND/OR WEATHER CONDITIONS ARE NOT AVAILABLE FOR
       CHILLICOTHE AND FARMINGTON.

MOZ001>031-035>038-043-044-053-054-250500-
...NORTHERN AND WESTERN MISSOURI...

CITY           SKY/WX    TMP DP  RH WIND       PRES   REMARKS
KANSAS CTY INT CLEAR     71  59  65 S12       29.98F
KANSAS C DTWN  CLEAR     77  59  53 S6        29.98F
LEE`S SUMMIT   CLEAR     72  60  66 S8        29.99F
ST JOSEPH      CLEAR     71  62  73 SE8       29.97F
CHILLICOTHE      N/A     70  59  68 VRB3      30.00F
KIRKSVILLE     MOCLDY    66  58  75 S9        29.99F

$$
MOZ066>068-077>081-088>096-101>105-250500-
...SOUTHWEST MISSOURI...

CITY           SKY/WX    TMP DP  RH WIND       PRES   REMARKS
SPRINGFIELD    CLEAR     70  59  68 SE7       30.05S
JOPLIN         CLEAR     75  64  68 SE6       30.03S

$$
MOZ032>034-039>042-045>050-055>058-069>072-250500-
...CENTRAL MISSOURI...

CITY           SKY/WX    TMP DP  RH WIND       PRES   REMARKS
COLUMBIA       CLEAR     65  57  75 SE7       30.03F
JEFFERSON CITY CLEAR     66  57  72 E5        30.03F
ROLLA          CLEAR     65  53  65 E9        30.04F
SEDALIA        CLEAR     68  58  70 SE5       30.03F
OSAGE BEACH    CLEAR     70  55  60 SE5       30.03F

$$
MOZ051-052-059>065-250500-
...EAST CENTRAL MISSOURI...

CITY           SKY/WX    TMP DP  RH WIND       PRES   REMARKS
ST LOUIS INTL  CLEAR     71  55  56 NE5       30.06F
SPIRIT OF STL  CLEAR     61  56  83 CALM      30.04F
ST CHARLES     CLEAR     63  57  81 CALM      30.04F

$$
MOZ072>076-082>087-097>100-106>115-250500-
...SOUTH CENTRAL AND SOUTHEAST MISSOURI...

CITY           SKY/WX    TMP DP  RH WIND       PRES   REMARKS
CAPE GIRARDEAU CLEAR     64  61  90 CALM      30.05S
FARMINGTON     CLEAR     61  57  88 CALM      30.09F
POPLAR BLUFF   CLEAR     64  61  90 CALM      30.04F
WEST PLAINS    PTCLDY    67  58  72 SE5       30.07F

$$



USA.gov is the U.S. government's official web portal to all federal, state and local government web resources and services.